www.pogodaiklimat.ru

Погода и климат >> Архив погоды >> Аргентина >> La Plata


ПОГОДА в La Plata

  • Прогноз погоды в La Plata
  • Монитор погоды в La Plata
  • Климат города

АРХИВ ПОГОДЫ в La Plata

Время (UTC), дата Ветер
(напр.,м/с)
 
Видим.   Явления Облачность Т
(С)
Тd
(С)
f
(%)
Тe
(С)
Тes
(С)
Комфортность P
(гПа)
Po
(гПа)
Тmin
(С)
Tmax
(С)
R
(мм)
S
(см)
03 21.03 В 2 10 км 6/1 540 м
[Sc Cs]
+17.8 +17.1 96 +19 +19 1024.1 1021.4
06 21.03 В 4 10 км 4/1 450 м
[Sc Ac As Ci fib]
+18.8 +16.7 88 +20 +20 1023.9 1021.2
09 21.03 В 3 10 км 6/0
[Ac trans]
+17.8 +16.6 93 +18 +18 1024.4 1021.7
12 21.03 В 5 10 км 6/3 450 м
[Sc Ci]
+20.0 +17.3 84 +23 +24 комфорт 1025.2 1022.4 +16.8 +20.0
15 21.03 В 6 10 км 4/1 540 м
[Cu med, cong Ac As Ci]
+22.4 +16.4 69 +27 +31 душно 1024.7 1022.0
18 21.03 В 5 10 км 3/1 450 м
[Cu hum Ci]
+24.5 +14.9 55 +27 +32 жарко 1022.9 1020.2
21 21.03 В 7 10 км 4/0
[Ci fib]
+22.2 +17.2 73 +27 +27 душно 1021.9 1019.2
00 22.03 В 3 10 км 5/0
[Ci fib]
+19.5 +18.1 92 +22 +22 комфорт 1022.0 1019.3 +19.5 +25.0
03 22.03 В 3 10 км 4/0
[Ac As Cs]
+19.6 +17.8 89 +22 +22 комфорт 1022.6 1020.0
06 22.03 В 3 10 км 10/1 720 м
[Sc Ac As]
+19.8 +17.9 89 +23 +23 комфорт 1021.8 1019.2
09 22.03 В 4 10 км 9/3 450 м
[St Ac As]
+19.1 +18.0 93 +21 +21 комфорт 1021.6 1018.9
12 22.03 В 6 10 км 8/6 240 м
[St Ac As Ci sp]
+20.7 +18.8 89 +25 +25 комфорт 1022.2 1019.6 +18.6 +21.0
15 22.03 В 5 10 км 8/8 480 м
[Sc Ac As Ci sp]
+23.1 +18.9 77 +29 +31 очень
душно
1021.7 1019.0
18 22.03 В 5 10 км 5/4 750 м
[Cu med, cong Ac As Cc]
+25.1 +19.6 72 +31 +34 очень
душно
1019.8 1017.2
21 22.03 В 4 10 км 4/1 660 м
[Cu hum Ac As Cc]
+23.7 +19.1 75 +28 +29 душно 1018.9 1016.2
00 23.03 ЮВ 3 10 км ясно +20.1 +19.3 95 +24 +24 комфорт 1019.5 1016.8 +20.1 +25.2
03 23.03 ЮВ 3 10 км 3/0
[Cs]
+19.9 +19.3 96 +24 +24 комфорт 1018.9 1016.2
06 23.03 штиль 0 10 км 6/0
[Ac und Cs]
+19.9 +19.3 96 +23 +23 комфорт 1017.7 1015.0
09 23.03 штиль 0 5000 м дымка ясно +17.4 +17.2 99 +17 +17 1017.3 1014.6
12 23.03 СВ 2 6000 м дымка {туман} 4/3 540 м
[Cu med, cong Ac trans]
+21.0 +19.6 92 +27 +29 душно 1018.3 1015.6 +16.0 +21.0
15 23.03 СВ 3 10 км 6/6 750 м
[Cu med, cong Ac trans]
+25.0 +19.0 69 +30 +34 душно 1017.8 1015.2
18 23.03 С 4 10 км 4/4 900 м
[Cu med, cong Ac trans]
+26.0 +17.5 59 +30 +35 душно 1015.3 1012.6
21 23.03 В 3 10 км 4/3 900 м
[Cb calv Ac As Ci ing]
+24.0 +18.9 73 +29 +29 душно 1014.9 1012.2
00 24.03 В 3 10 км 5/5 210 м
[St Ci sp]
+20.6 +19.7 95 +25 +25 комфорт 1015.4 1012.8 +20.6 +27.0
03 24.03 ЮВ 1 10 км 1/1 600 м
[Cu hum]
+20.3 +19.7 96 +25 +25 комфорт 1015.3 1012.6
06 24.03 штиль 0 600 м туман ясно +18.6 +18.6 100 +20 +20 1014.4 1011.7
09 24.03 штиль 0 100 м туман ясно +16.2 +16.2 100 +16 +16 1014.3 1011.6
12 24.03 Ю 1 100 м туман ?/? +18.6 +18.6 100 +21 +21 комфорт 1015.9 1013.2 +15.1 +21.6
15 24.03 Ю 2 10 км {туман} 6/6 750 м
[Cu med, cong]
+24.2 +19.4 75 +29 +35 душно 1015.9 1013.2
18 24.03 СВ 3 10 км {туман} 4/4 900 м
[Cu med, cong]
+26.0 +20.4 71 +32 +37 очень
душно
1014.2 1011.4
21 24.03 В 3 10 км 1/1 1000 м
[Cu med, cong]
+24.2 +20.1 78 +30 +30 очень
душно
1013.8 1011.0
00 25.03 В 2 10 км ясно +20.2 +19.7 97 +25 +25 комфорт 1014.8 1012.1 +18.6 +27.1
03 25.03 В 2 8000 м дымка ясно +19.9 +19.4 97 +24 +24 комфорт 1015.1 1012.4
06 25.03 штиль 0 500 м туман ясно +17.7 +17.7 100 +18 +18 1014.7 1012.0
09 25.03 Ю 1 500 м туман 3/0
[Ac As]
+16.9 +16.9 100 +18 +18 1015.7 1013.0
12 25.03 В 3 9000 м дымка {туман} 3/0
[Ci fib]
+21.6 +20.5 93 +27 +30 душно 1016.9 1014.2 +16.7 +21.6
15 25.03 СВ 4 10 км 4/0
[Ci fib]
+25.6 +20.3 73 +32 +40 очень
душно
1017.4 1014.6
18 25.03 В 7 10 км 3/1 750 м
[Cu hum Ci fib]
+26.6 +18.0 59 +31 +34 душно 1015.9 1013.2
21 25.03 В 5 10 км ясно +25.2 +18.2 65 +30 +30 душно 1015.1 1012.4
00 26.03 В 3 10 км ясно +21.1 +20.2 95 +26 +26 душно 1016.0 1013.3 +21.1 +27.5
03 26.03 В 6 10 км 1/0
[Ac cast]
+21.0 +20.2 95 +26 +26 душно 1016.0 1013.3
06 26.03 В 4 10 км ясно +21.2 +18.0 82 +25 +25 комфорт 1015.9 1013.2
09 26.03 СВ 4 10 км 3/3 300 м
[St Ci fib]
+20.2 +18.5 90 +24 +24 комфорт 1016.3 1013.6
12 26.03 СВ 8 10 км 8/5 450 м
[Sc Ac cast]
+21.5 +18.7 84 +26 +26 душно 1017.2 1014.5 +20.2 +21.7
15 26.03 СВ 6 10 км 8/8 360 м
[Sc]
+22.7 +18.8 79 +29 +30 очень
душно
1016.2 1013.6
18 26.03 СВ 5 10 км 9/4 600 м
[Cu med, cong Cs]
+26.5 +17.9 59 +31 +34 душно 1014.8 1012.1
21 26.03 В 5 600 м 8/0
[Ac As Cs]
+24.4 +18.6 70 +29 +29 душно 1014.5 1011.8
00 27.03 В 4 10 км 1/0
[Ac und]
+22.3 +18.9 81 +28 +28 душно 1015.2 1012.5 +21.3 +27.0
03 27.03 В 5 10 км 5/0
[Cs]
+22.0 +18.4 80 +27 +27 душно 1016.4 1013.7
06 27.03 В 5 10 км 8/0
[Cs]
+20.8 +18.8 88 +25 +25 комфорт 1016.8 1014.1
09 27.03 СВ 3 10 км 3/3 600 м
[Cu hum]
+20.4 +19.0 92 +25 +25 комфорт 1017.4 1014.6
12 27.03 СВ 4 10 км 10/10 360 м
[Sc]
+21.7 +19.5 87 +27 +27 душно 1019.0 1016.4 +19.8 +22.3
15 27.03 В 3 10 км 9/9 600 м
[Sc]
+23.7 +19.7 78 +29 +30 душно 1019.6 1016.9
18 27.03 В 4 10 км 3/3 750 м
[Cu med, cong Ac trans]
+26.3 +20.3 70 +33 +37 очень
душно
1018.7 1016.0
21 27.03 В 7 10 км ясно +24.2 +19.9 77 +30 +30 очень
душно
1018.9 1016.2
00 28.03 В 4 10 км ясно +21.2 +19.8 92 +26 +26 душно 1019.7 1017.0 +21.2 +27.2

 

Местоположение метеостанции La Plata (Аргентина): широта -34.96 долгота -57.90 высота над уровнем моря 19 м.

В архиве по умолчанию представлена погода в La Plata за последнюю неделю. Архивные данные за месяц целиком и за предыдущие месяцы, начиная с января 2011 года, Вы можете получить, выбрав интересующий диапазон дат из раскрывающегося списка и нажав кнопку "Ввод!".

Внимание! Время в таблицах - всемирное. Для получения местного времени необходимо прибавить поправку, которая в La Plata равна -3 ч.

Смотрите также архив погоды в соседних городах и на ближайших метеорологических станциях:

Погода в Colonia (Уругвай) (57 км)
Погода в Ezeiza (Аргентина) (60 км)
Погода в Buenos Aires Aeropuerto (Аргентина) (64 км)
Погода в Buenos Aires (Аргентина) (68 км)
Погода в Melilla (Уругвай) (152 км)
Погода в Dolores (Аргентина) (152 км)
Погода в Prado (Уругвай) (156 км)
Погода в Las Flores (Аргентина) (164 км)
Погода в Carrasco (Уругвай) (174 км)
Погода в Florida (Уругвай) (183 км)

Пояснения к столбцам:

Ветер - указаны скорость ветра в м/с - средняя за 10 мин, порывы в срок и между сроками (в фигурных скобках) и направление, откуда дует ветер: С - северный, СВ - северо-восточный, В - восточный, ЮВ - юго-восточный, Ю - южный, ЮЗ - юго-западный, З - западный, СЗ - северо-западный.
Видимость - горизонтальная дальность видимости в метрах или километрах. При видимости от 1 до 10 км при отсутствии осадков обычно наблюдается дымка, при ухудшении видимости до 1 км и менее - туман. В сухую погоду видимость может ухудшаться дымом, пылью или мглою.
Явления - указаны атмосферные явления, наблюдавшиеся в срок или в последний час перед сроком; фигурными скобками обозначены явления, наблюдавшиеся между сроками (за 1-3 часа до срока); квадратными скобками обозначены град или гололедные отложения с указанием их диаметра в мм.
Облачность - указаны через наклонную черту общая и нижняя облачность в баллах и высота нижней границы облаков в метрах; квадратными скобками обозначены формы облаков: Ci - перистые, Cs - перисто-слоистые, Cc - перисто-кучевые, Ac - высококучевые, As - высокослоистые, Sc - слоисто-кучевые, Ns - слоисто-дождевые, Cu - кучевые, Cb - кучево-дождевые. Подробнее классификацию облаков см. в Атласе облаков (PDF).
T - Температура воздуха - температура, измеренная на высоте 2 м над землей.
Td - Температура точки росы - температура, при понижении до которой содержащийся в воздухе водяной пар достигнет насыщения.
f - Относительная влажность воздуха - влажноcть воздуха, измеренная на высоте 2 м над землей.
Te - Эффективная температура - температура, которую ощущает одетый по сезону человек в тени. Характеристика душности погоды. При расчете учитывается влияние влажности воздуха и скорости ветра на теплоощущения человека.
Tes - Эффективная температура на солнце - температура, которую ощущает человек, с поправкой на солнечный нагрев. Характеристика знойности погоды. Зависит от высоты солнца над горизонтом, облачности и скорости ветра. Ночью, в пасмурную погоду, а также при ветре 12 м/с и более поправка равна нулю.
P - Атмосферное давление - приведенное к уровню моря атмосферное давление.
Po - Атмосферное давление - измеренное на уровне метеостанции атмосферное давление.
Tmin - Минимальная температура - минимум температуры воздуха на высоте 2 м над землей.
Tmax - Максимальная температура - максимум температуры воздуха на высоте 2 м над землей.
R - Количество осадков - Количество выпавших осадков, мм. При наведении курсора мыши на число - период времени, за который выпало указанное количество осадков.
S - Снежный покров - Высота снежного покрова, см. При наведении курсора мыши на число - состояние снежного покрова и степень покрытия местности в баллах.